TimeCDT,TemperatureF,Dew PointF,Humidity,Sea Level PressureIn,VisibilityMPH,Wind Direction,Wind SpeedMPH,Gust SpeedMPH,PrecipitationIn,Events,Conditions,WindDirDegrees,DateUTC
12:53 AM,66.9,61.0,81,29.71,9.0,SSE,3.5,-,N/A,,Clear,160,2013-03-18 05:53:00
1:53 AM,66.0,61.0,84,29.72,8.0,South,5.8,-,N/A,,Clear,170,2013-03-18 06:53:00
2:53 AM,64.9,61.0,87,29.71,7.0,South,5.8,-,N/A,,Clear,170,2013-03-18 07:53:00
3:53 AM,64.0,61.0,90,29.72,6.0,South,8.1,-,N/A,,Clear,180,2013-03-18 08:53:00
4:19 AM,64.0,61.0,90,29.77,5.0,South,8.1,-,N/A,,Mostly Cloudy,180,2013-03-18 09:19:00
4:53 AM,64.9,62.1,90,29.72,5.0,South,8.1,-,N/A,,Overcast,190,2013-03-18 09:53:00
6:06 AM,64.0,61.0,90,29.77,4.0,SW,4.6,-,N/A,,Scattered Clouds,220,2013-03-18 11:06:00
6:53 AM,63.0,61.0,93,29.74,3.0,South,3.5,-,N/A,,Clear,190,2013-03-18 11:53:00
7:26 AM,62.1,60.1,93,29.79,2.5,SSW,5.8,-,N/A,,Clear,200,2013-03-18 12:26:00
7:51 AM,62.6,60.8,94,29.80,1.5,SSW,3.5,-,N/A,,Clear,210,2013-03-18 12:51:00
7:53 AM,62.1,60.1,93,29.76,1.5,SSW,3.5,-,N/A,,Clear,210,2013-03-18 12:53:00
8:49 AM,62.6,60.8,94,29.82,2.0,South,6.9,-,N/A,,Clear,190,2013-03-18 13:49:00
8:53 AM,63.0,61.0,93,29.78,2.5,South,8.1,-,N/A,,Clear,190,2013-03-18 13:53:00
9:05 AM,64.0,62.1,93,29.82,3.0,South,5.8,-,N/A,,Clear,190,2013-03-18 14:05:00
9:53 AM,69.1,62.1,78,29.79,6.0,SW,5.8,-,N/A,,Haze,230,2013-03-18 14:53:00
10:53 AM,73.9,51.1,45,29.81,10.0,WNW,8.1,-,N/A,,Clear,300,2013-03-18 15:53:00
11:53 AM,79.0,45.0,30,29.82,10.0,NW,12.7,-,N/A,,Clear,310,2013-03-18 16:53:00
12:53 PM,81.0,42.1,25,29.83,10.0,North,13.8,17.3,N/A,,Clear,350,2013-03-18 17:53:00
1:53 PM,82.0,41.0,23,29.83,10.0,North,13.8,-,N/A,,Clear,360,2013-03-18 18:53:00
2:53 PM,82.0,41.0,23,29.81,10.0,NNE,12.7,-,N/A,,Clear,20,2013-03-18 19:53:00
3:53 PM,82.9,43.0,24,29.81,10.0,North,11.5,-,N/A,,Clear,10,2013-03-18 20:53:00
4:53 PM,81.0,41.0,24,29.83,10.0,North,12.7,17.3,N/A,,Clear,360,2013-03-18 21:53:00
5:53 PM,77.0,41.0,28,29.86,10.0,North,10.4,-,N/A,,Clear,360,2013-03-18 22:53:00
6:53 PM,73.9,43.0,33,29.88,10.0,North,9.2,-,N/A,,Clear,360,2013-03-18 23:53:00
7:53 PM,70.0,43.0,38,29.91,10.0,North,6.9,-,N/A,,Clear,360,2013-03-19 00:53:00
8:53 PM,66.0,44.1,45,29.93,10.0,North,4.6,-,N/A,,Clear,360,2013-03-19 01:53:00
9:53 PM,64.9,44.1,47,29.93,10.0,NNE,10.4,-,N/A,,Clear,30,2013-03-19 02:53:00
10:53 PM,62.1,45.0,53,29.94,10.0,NE,11.5,-,N/A,,Clear,40,2013-03-19 03:53:00
11:53 PM,60.1,44.1,55,29.95,10.0,NE,9.2,-,N/A,,Clear,40,2013-03-19 04:53:00